Regional Weather Roundup
Issued by NWS New Orleans/Baton Rouge, LA

Home | Current Version | Previous Version | Graphics & Text | Print | Product List | Glossary On
Versions: 1 2 3 4 5 6 7 8 9 10 11 12 13 14 15 16 17 18 19 20 21 22 23 24 25 26 27 28 29 30 31 32 33 34 35 36 37 38 39 40 41 42 43 44 45 46 47 48 49 50
608
ASUS44 KLIX 200610
RWRLIX
NEW ORLEANS REGIONAL WEATHER ROUNDUP
NATIONAL WEATHER SERVICE NEW ORLEANS LA
1200 AM CST SAT DEC 20 2014

NOTE: "FAIR" INDICATES FEW OR NO CLOUDS BELOW 12,000 FEET WITH NO
      SIGNIFICANT WEATHER AND/OR OBSTRUCTIONS TO VISIBILITY.
      SKY/WX - SKY CONDITION AND SIGNIFICANT WEATHER.
      TMP - AIR TEMPERATURE.     DP    - DEWPOINT TEMPERATURE.
      RH  - RELATIVE HUMIDITY.   PRES  - PRESSURE.
      HI  - HEAT INDEX.          WCI   - WIND CHILL INDEX.

*  THESE STATIONS ARE NOT NWS OR FAA STATIONS AND ARE NOT UNDER
   NWS QUALITY CONTROL.

LAZ038-040-048-061>063-065>067-069-200700-
SOUTHEAST LOUISIANA

CITY           SKY/WX    TMP DP  RH WIND       PRES   REMARKS
N.O. AUDUBON     N/A     50  50  99 MISG        N/A
6HR MIN TEMP:  49; 6HR MAX TEMP:  54; 6HR PCP:  0.58;

N.O. INTL ARPT LGT RAIN  51  48  89 NE14      30.08R FOG
6HR MIN TEMP:  50; 6HR MAX TEMP:  52; 6HR PCP:  0.62;

N.O. LAKEFRONT LGT RAIN  52  49  89 NE18      30.08R FOG
6HR MIN TEMP:  52; 6HR MAX TEMP:  53; 6HR PCP:  0.55;

N.O. DOWNTOWN* CLOUDY    48  45  87 N6        30.08R
6HR MIN TEMP:  48; 6HR MAX TEMP:  52; 6HR PCP:  0.60;

SLIDELL        LGT RAIN  49  47  93 N8        30.08F
6HR MIN TEMP:  48; 6HR MAX TEMP:  49; 6HR PCP:  0.29;

BATON ROUGE    LGT RAIN  48  46  93 NE9       30.09S
6HR MIN TEMP:  47; 6HR MAX TEMP:  49; 6HR PCP:  0.28;

BOOTHVILLE     CLOUDY    59  58  96 NE8       30.02F
6HR MIN TEMP:  57; 6HR MAX TEMP:  59; 6HR PCP: TRACE;

BELLE CHASSE   LGT RAIN  50  49  96 N6        30.06F FOG
6HR MIN TEMP:  50; 6HR MAX TEMP:  52; 6HR PCP:  0.26;

BOGALUSA*      HVY RAIN  49  46  89 N5        30.13R
6HR MIN TEMP:  49; 6HR MAX TEMP:  49; 6HR PCP:  0.39;

GALLIANO*      RAIN      54  53  97 MISG      30.05S
6HR MIN TEMP:  54; 6HR MAX TEMP:  56; 6HR PCP:  0.09;

NEW ROADS*     DRIZZLE   47  47  97 N9        30.10F
6HR MIN TEMP:  47; 6HR MAX TEMP:  48; 6HR PCP:  0.19;

GONZALES*      CLOUDY    50  50 100 NE6       30.07F
6HR MIN TEMP:  47; 6HR MAX TEMP:  50; 6HR PCP:  0.15;

HAMMOND*       NOT AVBL
HOUMA*         DRIZZLE   50  49  97 NE8       30.05F
6HR MIN TEMP:  50; 6HR MAX TEMP:  54; 6HR PCP:  0.31;

PORT FOURCHON* CLOUDY    57  55  94 NE16G23   30.05F FOG

$$

MSZ070-080>082-200700-
SOUTHERN MISSISSIPPI

CITY           SKY/WX    TMP DP  RH WIND       PRES   REMARKS
MCCOMB         LGT RAIN  46  44  93 N8        30.11F
6HR MIN TEMP:  45; 6HR MAX TEMP:  47; 6HR PCP:  0.28;

GULFPORT       LGT RAIN  47  45  93 NE8       30.07F
6HR MIN TEMP:  47; 6HR MAX TEMP:  48; 6HR PCP:  0.16;

BILOXI         RAIN      46  46 100 NE8       30.07F
6HR MIN TEMP:  47; 6HR MAX TEMP:  48; 6HR PCP:  0.21;

PASCAGOULA     LGT RAIN  47  46  97 NE9       30.09F
6HR MIN TEMP:  47; 6HR MAX TEMP:  48; 6HR PCP:  0.17;


$$

COASTAL OBSERVATIONS
LAKE AND NEARSHORE STATIONS

STATION/POSITION TIME  TEMP    WIND        PRES    WAVE
                       AIR SEA DIR/SP/G            HT/PER
                 (UTC) (F)     (DEG/KT/KT) (MB)    (FT/S)
PASCAGOULA       0600   49      40/ 10/ 13 1018.1
WAVELAND YACHT   0600   48      50/ 12/ 15 1017.7
GRAND ISLE       0600   58 62   50/ 15/ 20 1016.9
SOUTHWEST PASS   0600   60                 1016.2
NEW CANAL        0600   51 56   50/ 15/ 16 1018.7
SHELL BEACH      0600   52 58   40/ 15/ 19 1017.7

OFFSHORE STATIONS

STATION/POSITION TIME  TEMP    WIND        PRES    WAVE
                       AIR SEA DIR/SP/G            HT/PER
                 (UTC) (F)     (DEG/KT/KT) (MB)    (FT/S)
64 S DAUPHIN ISL 0600   67 75  100/ 17/ 21 1016.2    4/ 5

$$




USA.gov is the U.S. government's official web portal to all federal, state and local government web resources and services.